Location: Melbourne
(37.8666°S, 145.1333°E)
Time: 09:19:00
(UTC+11:00)

Iridium 72 - Visible Passes

Search period start: 17 October 2017 00:00
Search period end: 27 October 2017 00:00
Orbit: 776 x 779 km, 86.4° (Epoch: 16 October)

Date Brightness Start Highest point End Pass type
(mag) Time Alt. Az. Time Alt. Az. Time Alt. Az.
17 Oct 8.3 00:35:59 12° SW 00:35:59 12° SW 00:36:42 10° SSW visible
17 Oct 7.7 22:21:50 15° SE 22:21:50 15° SE 22:22:56 10° SSE visible
18 Oct 7.9 00:02:17 19° SSW 00:02:17 19° SSW 00:04:02 10° SSW visible
18 Oct 7.4 23:28:33 26° S 23:28:33 26° S 23:30:52 10° S visible
19 Oct 7.1 22:54:48 29° SSE 22:54:48 29° SSE 22:57:20 10° S visible
20 Oct 8.4 00:35:15 11° SW 00:35:15 11° SW 00:35:40 10° SW visible
20 Oct 7.1 22:21:03 24° SE 22:21:03 24° SE 22:23:28 10° SSE visible
21 Oct 7.9 00:01:30 19° SW 00:01:30 19° SW 00:03:43 10° SSW visible
21 Oct 7.4 21:47:17 16° SE 21:47:17 16° SE 21:49:04 10° SE visible
21 Oct 7.2 23:27:43 31° SW 23:27:43 31° SW 23:30:48 10° S visible
22 Oct 6.5 22:53:56 43° S 22:53:56 43° S 22:57:28 10° S visible
23 Oct 6.3 22:20:07 40° SE 22:20:07 40° SE 22:23:49 10° SSE visible
24 Oct 7.9 00:00:33 16° WSW 00:00:33 16° WSW 00:03:04 10° SW visible
24 Oct 6.8 21:46:17 26° ESE 21:46:17 26° ESE 21:49:46 10° SSE visible
24 Oct 7.2 23:26:44 29° WSW 23:26:44 29° WSW 23:30:35 10° SSW visible
25 Oct 7.3 21:12:26 15° ESE 21:12:26 15° ESE 21:15:00 10° SE visible
25 Oct 6.2 22:52:53 54° SW 22:52:53 54° SW 22:57:30 10° S visible
26 Oct 5.5 22:19:00 74° ESE 22:19:00 74° ESE 22:24:02 10° S visible
